RH
70 75 68 81 78 48 31 91 35 39 38 62 27 38 76 74 48 45 44 56 56 62 62 55 51 60 54 52 48 47 51 52 54 56 61 54 51 55 55 50 51 56 56 46 45 46 37 39 40
58 68 80 97 95 72 23 23 27 29 25 26 22 35 31 36 27 38 49 48 51 56 53 50 52 55 47 48 58 59 54 54 57 58 63 64 60 56 61 53 61 69 65 68 78 74 58 46 43
50 86 98 96 60 18 17 25 28 25 22 23 29 45 28 19 20 29 36 47 45 49 50 54 54 53 42 42 53 56 52 65 71 59 65 78 64 72 65 55 57 60 62 62 63 61 52 46 51
57 90 86 97 98 36 14 30 31 24 20 24 24 26 24 22 23 30 35 96 37 51 46 45 59 66 46 35 40 48 69 58 54 53 75 95 73 79 71 73 63 62 62 65 58 34 42 51 46
57 83 96 97 97 96 15 20 34 33 23 44 26 27 23 22 27 34 41 36 37 40 47 54 54 64 54 46 56 84 75 66 51 55 70 94 86 64 60 70 75 72 82 76 50 37 43 50 44
72 74 92 98 97 90 42 15 98 47 28 78 25 25 25 25 32 33 33 39 39 37 60 58 57 62 60 56 45 52 60 56 63 81 85 93 75 62 92 87 82 70 56 54 38 37 42 45 42
62 99 86 92 96 97 69 14 46 42 22 24 25 25 24 26 30 34 30 34 32 50 58 55 54 48 49 41 92 91 78 81 84 88 87 90 89 72 72 73 74 63 46 43 40 40 42 42 43
48 73 91 94 98 95 97 19 69 50 22 25 24 23 22 24 25 29 25 20 36 45 89 63 67 39 40 70 72 56 54 66 67 77 73 77 68 66 66 72 64 54 45 40 38 40 42 40 40
44 73 90 98 97 97 56 20 30 33 47 20 25 22 18 20 25 23 30 22 33 40 67 40 42 44 42 76 86 78 58 84 80 75 72 64 70 73 68 73 71 69 53 60 48 35 34 40 38
48 60 92 92 94 89 82 64 99 44 68 21 23 21 14 20 24 22 27 28 33 34 63 33 30 29 69 78 73 71 59 84 89 86 83 91 62 72 70 65 68 53 51 50 44 29 30 34 35
49 48 69 87 74 87 92 48 17 37 16 15 19 19 15 22 19 25 23 23 32 33 30 20 23 45 53 65 67 77 68 93 79 86 65 52 59 62 68 59 49 50 54 44 36 35 31 30 29
40 47 58 69 62 97 88 32 12 14 18 16 17 18 17 20 18 24 20 17 25 31 21 17 24 38 49 64 67 70 65 72 64 72 64 97 62 64 54 47 46 44 72 56 46 23 22 29 25
91 54 60 57 66 98 97 80 31 22 16 18 18 17 18 18 19 24 23 17 21 27 16 17 36 39 41 43 56 64 66 36 53 80 55 40 48 52 50 48 52 86 59 39 32 29 33 31 29
89 74 56 61 73 97 95 25 26 97 30 15 22 19 18 18 18 23 27 25 16 19 24 18 41 37 37 34 33 45 42 42 46 46 61 46 39 41 39 42 35 45 67 18 75 36 43 42 32
59 66 63 77 95 95 81 55 27 18 14 15 21 22 22 16 17 21 25 31 22 14 18 19 24 30 32 32 28 30 32 39 42 46 43 42 42 40 38 29 16 14 12 9 14 28 41 36 32
57 63 96 84 98 98 95 76 38 14 15 15 18 22 24 20 15 20 22 31 27 18 16 14 20 28 32 32 37 26 21 25 31 31 34 38 40 38 26 14 10 7 6 6 6 11 23 28 26
57 94 97 97 98 98 94 90 68 22 16 15 14 20 26 26 14 18 21 29 32 24 14 13 14 32 35 34 32 21 17 20 21 21 22 22 21 17 13 8 7 6 6 7 6 5 7 18 16
81 80 81 92 97 97 97 95 88 91 64 14 11 18 23 32 17 16 20 25 31 30 21 12 13 20 26 31 24 25 17 17 16 16 15 13 13 11 8 6 6 18 11 15 13 14 9 6 6
99 86 94 97 96 97 97 97 97 98 98 90 15 12 20 32 22 16 18 22 24 26 24 22 14 24 25 26 36 27 24 18 16 14 12 11 7 5 7 8 41 24 15 12 16 19 17 48 47
85 88 93 96 96 96 97 98 98 98 99 97 30 11 16 22 28 17 19 22 21 23 30 32 32 21 29 24 24 26 21 21 20 13 10 11 7 6 4 6 38 62 15 9 57 19 19 15 16
94 94 99 84 99 96 96 97 98 97 97 96 40 13 14 29 73 25 20 20 22 18 30 41 33 35 38 37 32 34 25 18 18 18 11 10 8 8 5 10 56 46 14 6 7 15 23 17 80
99 73 94 95 96 96 94 96 96 98 98 97 83 18 24 18 19 27 22 16 16 16 19 44 48 37 34 34 45 60 40 34 29 21 17 20 15 21 23 24 21 41 26 10 7 9 19 33 28
96 75 91 96 95 94 96 96 96 98 97 96 96 19 39 94 33 23 18 15 15 12 15 20 38 57 34 35 44 66 64 47 47 27 24 17 14 23 27 26 22 40 37 16 11 12 24 34 28
97 83 93 93 95 96 94 93 94 93 95 97 62 23 18 20 31 99 62 13 16 12 13 16 20 39 54 49 57 64 64 67 55 35 38 34 12 15 15 14 25 34 55 15 12 13 17 30 30
98 88 78 96 97 92 84 78 84 84 82 92 52 34 95 58 25 63 86 16 13 61 15 12 16 27 38 61 70 64 67 91 65 53 41 25 21 21 32 27 21 18 35 17 18 13 16 15 20
71 71 99 93 95 96 84 72 75 70 92 95 95 79 42 95 50 84 70 52 47 47 44 17 12 14 32 49 71 59 63 49 42 46 48 94 50 36 38 36 34 23 19 14 14 11 13 17 14
91 50 78 86 96 96 88 97 98 80 74 81 87 88 96 75 100 55 36 29 80 51 24 44 18 11 17 27 39 59 63 68 62 62 50 63 53 45 38 27 27 21 14 15 19 13 20 19 13
50 98 76 51 80 93 83 90 96 98 89 83 85 80 90 95 97 63 56 49 65 90 25 25 17 14 11 17 20 21 34 41 54 73 68 60 47 46 55 38 30 32 18 14 17 23 25 20 16
18 32 55 93 96 87 95 97 98 98 91 95 96 91 83 77 82 58 69 94 20 64 58 12 14 12 13 12 13 14 14 20 27 33 58 65 65 87 55 38 37 40 38 31 24 18 31 29 20
29 73 22 70 80 94 96 96 74 90 96 93 92 92 81 86 72 79 62 36 44 31 24 30 20 19 12 12 12 13 13 14 14 18 19 47 79 87 71 59 28 40 40 50 44 41 28 30 20
Wind_Speed
10 10 11 7 14 9 12 11 8 8 9 11 2 8 6 8 6 10 7 7 7 8 8 7 7 7 5 6 7 6 6 5 4 5 6 7 7 7 7 8 9 12 12 11 12 11 11 11 11
7 5 6 5 16 10 7 9 7 8 6 4 5 7 6 8 7 9 5 6 7 7 7 6 7 8 6 5 5 6 6 5 5 5 6 6 7 8 8 8 10 12 12 11 12 12 12 11 11
6 2 9 13 15 13 6 9 7 8 6 1 6 7 8 7 5 6 9 6 9 8 7 7 7 7 6 5 5 5 5 6 6 5 5 6 7 7 8 8 9 11 12 9 11 12 13 12 12
4 5 4 8 9 7 8 7 6 6 6 6 3 7 8 6 5 9 7 3 7 6 7 6 7 6 5 5 5 5 4 4 3 3 4 4 8 8 9 10 10 10 10 9 11 12 14 14 14
2 2 3 4 4 4 6 6 4 6 6 4 5 5 7 6 6 5 6 6 4 5 6 6 6 7 6 5 3 3 3 4 3 3 3 3 9 9 9 10 10 10 10 12 13 13 13 13 14
2 2 2 7 11 10 4 9 11 4 6 9 7 7 7 6 5 5 5 7 5 5 6 6 8 8 7 5 4 2 1 4 5 6 6 5 15 11 9 13 13 13 15 15 15 14 14 14 14
3 4 4 12 9 10 5 8 8 4 6 6 6 7 6 7 3 3 6 4 4 3 5 8 8 7 7 6 12 3 3 6 7 4 8 10 15 13 12 13 15 14 14 15 15 14 13 13 14
7 5 7 12 11 7 11 11 18 11 7 8 8 7 6 8 3 2 6 5 4 6 3 12 8 7 7 8 11 11 12 8 7 10 16 14 14 14 15 14 15 15 15 15 15 13 13 13 13
8 6 6 8 11 15 13 9 11 9 6 8 8 7 5 8 5 5 4 9 6 7 10 9 7 7 8 8 6 9 9 10 11 15 16 13 15 14 15 15 16 15 16 14 13 13 12 11 12
11 10 7 10 13 16 23 12 19 16 14 12 10 7 6 7 6 5 7 8 7 7 7 7 7 9 8 5 9 8 14 16 17 19 14 25 16 15 15 16 14 14 14 11 9 11 13 12 11
15 11 11 10 11 10 20 20 20 17 14 12 10 8 7 8 7 6 8 7 8 8 8 8 8 12 12 6 10 9 15 20 23 26 24 17 18 16 17 15 13 14 11 9 9 10 12 12 11
16 14 12 11 12 17 27 23 19 18 16 13 10 9 9 8 7 6 7 10 9 8 10 7 9 10 11 12 11 9 15 19 26 24 21 18 21 19 16 13 15 17 13 13 10 9 12 14 14
14 12 11 10 11 12 25 27 21 19 17 14 12 11 10 8 9 7 7 10 9 8 11 7 9 11 13 13 11 11 9 16 19 26 25 20 19 18 15 13 11 10 17 15 12 11 11 16 18
18 18 12 11 7 16 26 21 22 22 18 16 15 12 11 11 10 9 7 9 9 9 10 10 10 12 12 12 14 13 13 12 18 20 17 16 16 15 14 14 16 10 17 20 15 15 18 20 24
15 12 11 11 11 10 25 21 22 22 19 18 17 15 13 11 11 9 8 8 8 9 10 10 10 10 13 14 13 15 17 14 15 16 16 15 15 15 15 17 17 17 18 17 17 19 20 23 25
13 13 14 18 21 30 27 24 22 23 21 20 20 18 15 12 12 10 8 8 8 8 8 10 10 11 12 13 14 13 17 17 17 18 19 17 16 16 16 17 17 18 16 17 15 17 19 24 25
18 12 14 12 17 35 34 30 27 24 23 23 22 20 18 14 14 12 9 7 8 8 8 10 11 11 11 11 12 14 15 16 16 17 18 18 17 15 16 16 16 16 16 15 13 13 13 17 21
19 17 19 20 12 27 30 33 33 26 23 24 24 22 19 16 15 14 11 8 7 7 7 8 10 11 11 11 12 12 13 14 16 16 16 15 14 13 14 14 15 16 14 13 13 10 14 12 14
18 21 28 15 12 15 24 24 32 27 28 26 27 24 22 20 18 16 12 10 8 7 7 8 10 11 10 11 10 12 12 12 12 14 14 13 12 12 13 14 13 13 20 15 16 13 9 11 13
25 28 29 17 20 22 25 31 26 34 33 27 31 27 25 22 21 18 14 11 9 8 7 7 8 9 10 9 11 11 11 10 11 11 12 13 12 10 13 11 9 12 17 12 12 14 9 11 14
4 30 24 25 23 14 15 25 35 36 34 36 32 29 28 22 22 19 15 13 11 9 8 7 7 8 9 9 7 8 9 10 10 9 9 10 9 7 7 9 3 13 9 9 11 11 12 6 10
13 28 23 35 8 12 14 12 21 17 39 31 41 34 32 28 26 22 19 15 15 13 9 8 8 7 7 9 8 9 9 8 7 8 9 9 9 9 5 5 8 7 4 7 8 9 7 7 11
26 38 28 10 18 7 15 14 11 21 33 33 34 39 36 37 25 24 21 18 15 13 11 9 8 7 6 6 7 9 8 8 7 5 5 8 8 7 7 6 8 9 8 7 8 9 6 3 6
28 35 22 27 6 7 9 11 7 12 7 35 32 35 35 33 28 26 22 19 16 15 14 11 10 10 9 7 7 8 8 11 8 8 7 7 7 6 3 4 5 6 7 6 7 6 4 2 3
23 28 31 20 4 9 7 11 11 20 21 28 29 30 29 33 28 25 23 22 21 16 16 13 11 11 11 10 8 8 9 6 6 5 5 7 6 6 4 1 0 2 3 4 4 4 3 0 1
35 31 22 18 11 9 8 14 20 18 10 6 14 35 33 36 28 27 27 21 23 23 18 15 13 13 12 11 10 10 6 4 4 7 8 11 8 10 10 5 3 3 2 0 0 1 3 2 1
11 29 23 17 12 7 12 7 8 11 12 20 8 7 32 31 26 29 32 27 32 29 20 17 16 16 16 13 11 12 11 9 9 9 10 11 10 9 8 9 6 4 4 4 3 3 3 4 2
26 10 21 35 29 7 22 18 3 15 9 8 9 9 4 27 35 24 27 30 30 17 18 20 20 19 19 17 15 13 12 13 12 12 11 12 11 12 10 9 7 8 7 7 7 6 6 5 4
35 32 23 20 21 28 14 20 14 18 22 25 19 17 11 11 25 29 28 21 30 26 23 24 24 23 22 20 19 17 15 14 13 11 10 9 10 10 6 5 8 10 9 9 9 9 8 8 6
28 19 31 19 23 19 16 19 20 14 17 23 28 20 20 15 13 12 25 29 25 29 27 21 29 24 23 20 22 20 19 19 18 17 14 10 11 13 12 11 13 12 13 12 12 10 11 9 9
Wind_Direction
44 110 135 140 127 124 107 156 122 117 114 149 86 112 113 80 119 108 100 95 84 82 84 94 107 117 132 146 156 159 159 160 155 153 145 139 133 124 122 117 111 102 97 97 97 99 100 98 100
35 153 170 127 128 125 121 114 126 119 114 167 111 117 115 122 115 108 102 81 69 72 76 96 110 112 120 128 130 136 139 149 155 153 153 149 147 137 131 124 117 115 102 101 106 110 106 103 109
22 15 6 138 106 117 117 116 114 126 129 124 116 135 123 108 103 99 60 84 44 54 60 71 85 95 107 113 116 124 130 148 147 147 149 146 152 141 139 136 131 128 117 120 123 120 117 117 113
24 356 7 115 80 84 113 114 130 128 120 120 106 124 118 116 113 71 78 55 38 49 57 61 74 79 79 88 112 126 129 137 126 129 156 197 157 148 145 138 136 129 129 128 123 123 120 118 119
50 1 49 109 220 127 128 123 141 174 134 100 149 148 131 139 98 111 85 85 54 49 44 53 62 64 58 66 82 103 109 161 175 154 153 132 156 148 144 136 132 133 131 134 123 121 117 117 120
164 261 11 331 276 164 161 133 171 108 156 173 162 153 150 133 132 98 80 80 75 68 65 51 51 59 55 53 35 348 166 188 199 196 194 144 145 143 139 138 134 124 120 127 123 119 118 115 119
215 236 303 305 295 252 203 159 140 188 174 169 174 169 170 133 160 105 68 71 85 113 106 78 54 61 69 39 34 46 226 248 229 243 172 165 156 134 117 129 126 122 121 117 112 108 109 111 116
223 250 283 302 317 199 200 187 154 203 190 184 187 181 171 138 162 109 53 65 57 56 123 76 69 66 68 69 68 70 57 74 102 113 121 139 136 136 127 129 127 125 127 120 115 112 113 117 119
227 240 272 303 323 290 181 170 175 184 183 204 194 180 173 149 160 103 90 69 66 56 64 65 69 85 66 64 88 89 81 68 102 117 127 112 129 130 129 132 127 124 132 126 121 117 117 118 121
225 231 252 266 295 295 180 141 186 198 206 205 213 180 169 158 155 122 95 82 82 80 89 84 82 82 72 73 66 107 82 89 111 113 141 135 124 132 131 127 123 117 115 118 124 119 123 126 123
228 233 248 266 284 255 163 194 192 193 194 201 206 184 168 173 156 135 106 97 86 80 85 81 90 98 74 70 61 63 80 93 117 118 116 119 126 124 121 119 107 96 94 110 112 118 117 119 128
232 231 244 262 271 198 193 190 189 193 197 199 195 194 177 182 153 134 107 93 88 95 93 79 77 96 74 78 58 65 71 85 101 107 109 128 117 121 113 109 104 103 92 110 110 134 124 138 136
248 256 253 265 281 243 168 198 176 199 198 201 197 198 189 184 166 137 109 100 111 103 96 90 83 91 89 81 90 81 83 98 97 95 122 113 117 113 112 112 104 83 122 115 104 102 123 130 134
235 238 249 262 265 212 187 188 187 176 203 195 197 200 198 191 176 151 122 101 99 109 117 102 100 89 96 100 101 95 87 85 95 105 96 111 104 107 112 109 111 121 98 95 104 102 111 128 131
226 247 254 260 254 246 194 193 199 199 198 198 203 206 203 199 191 162 139 112 99 102 121 115 104 101 99 103 103 103 104 103 94 96 98 103 105 109 110 114 110 107 101 95 92 96 113 126 129
211 227 249 252 237 219 209 200 202 202 199 199 206 206 202 202 204 182 156 133 113 103 119 134 117 115 109 109 109 111 110 107 107 108 108 108 107 108 108 113 115 108 102 101 99 100 113 121 125
208 220 247 256 227 209 195 199 201 200 202 203 206 205 203 201 209 198 173 158 127 117 121 137 129 119 126 113 114 118 116 113 113 110 110 113 113 114 119 117 112 109 105 108 99 113 111 125 130
211 236 232 249 194 192 201 205 208 201 206 208 207 207 200 199 211 207 186 177 154 135 127 130 137 126 133 127 114 116 119 120 117 119 118 120 120 119 109 97 102 111 104 92 100 121 121 133 140
228 233 247 227 230 234 199 199 202 205 214 214 213 209 200 201 210 210 203 185 175 155 146 136 139 140 133 136 134 126 126 129 126 125 123 121 118 119 111 115 149 115 118 104 121 107 126 142 128
228 236 249 256 272 250 219 202 203 205 213 217 209 204 207 206 209 206 204 200 189 172 165 161 153 147 147 139 145 132 125 132 134 128 126 129 121 117 114 105 135 100 100 101 89 99 105 110 130
253 248 243 241 253 228 232 206 215 210 210 208 206 204 203 191 207 206 206 205 197 190 178 178 174 165 161 158 147 136 127 128 136 147 134 134 124 111 98 110 44 75 103 109 108 107 115 106 110
234 238 245 244 244 266 216 234 202 217 212 201 206 204 199 207 208 207 200 208 208 194 181 187 184 191 175 160 165 162 158 149 132 130 142 145 148 138 130 98 92 76 75 104 102 90 117 143 150
233 237 252 269 255 252 224 251 222 205 205 191 192 200 193 197 207 203 203 198 213 207 185 188 196 199 202 187 180 180 174 163 145 157 148 151 154 151 147 132 122 135 139 109 92 93 109 143 202
252 240 251 247 322 330 254 245 232 259 243 205 202 203 205 209 194 172 214 206 204 214 207 187 208 198 200 202 202 199 196 179 156 175 189 180 162 156 161 137 132 139 131 103 85 96 115 178 224
226 240 243 270 299 278 299 307 301 288 296 202 192 196 195 206 200 195 197 208 210 210 209 206 209 214 196 195 216 221 225 179 166 175 199 193 178 164 167 186 9 70 72 115 122 124 120 236 216
240 228 245 257 264 240 275 277 282 292 133 63 170 212 197 203 202 198 204 208 211 213 212 221 211 224 210 202 212 222 223 211 201 219 206 218 205 186 169 186 204 176 173 211 98 140 137 155 190
276 234 226 226 245 222 237 161 210 252 266 277 320 183 208 197 204 210 209 218 211 227 218 216 228 226 222 210 211 206 210 223 201 214 225 226 217 216 195 172 189 236 209 197 216 232 211 179 188
213 221 226 228 244 265 241 266 183 187 228 199 194 194 179 197 205 202 206 217 222 206 228 214 224 228 230 224 220 218 223 230 229 223 211 231 218 216 198 185 183 220 232 224 217 230 235 235 207
227 224 217 224 262 261 260 291 293 232 192 176 176 181 191 169 197 203 202 219 220 222 227 221 220 218 222 228 233 232 233 245 251 243 233 245 258 268 262 221 210 223 223 230 230 230 238 241 240
234 234 232 240 229 256 284 292 289 244 203 177 179 170 186 181 189 192 214 212 218 233 228 225 223 223 232 224 232 237 240 241 248 259 260 238 254 264 269 249 232 233 236 233 237 237 242 245 250